BEIDOU-2 G7 (C03)

Last updated on Mon Oct 20 2025 00:03:25 GMT+0000 (Coordinated Universal Time)

1 41586U 16037A 25292.02766802 -.00000356 00000+0 00000+0 0 9995 2 41586 1.6204 67.0462 0005633 339.9133 101.3272 1.00273966 4477
UTC large
Height (km)
Speed (km/s)
/
Latitude / Longitude
Inclination (degrees)
Orbital Period (minutes)
Azimuth
Elevation
Range (km)
Doppler Factor

Next 0 passes for location: London (51.5072 / 0.1276)

Sorry there are no passes over London.